Powrót do katalogu

STARLINK-3993

AktywnyŁącznośćVLEO
NORAD 52692·PAYLOAD·🇺🇸 United States

Wystrzelony May 18, 2022 z Cape Canaveral Space Force Station

Loading…

Następne Przeloty (najbliższe 24 godziny)

TLE

ŚwieżeSource: CelesTrak SupGP

Epoka: Sep 14, 2026, 20:42 UTC

1 52692C 22053AN  26257.86298611  .00629110  00000+0  25287-1 0  2579
2 52692  53.1602  13.4023 0001024  74.8380 151.0882 15.24084582    18

Śledź STARLINK-3993 w czasie rzeczywistym z AllMySat

Download on the App Store